Weather History for KGSH - August, 2013

Change the Weather History Date:

Thursday, August 1, 2013

  Actual Average (KSBN) Record (KSBN)
Temperature  
Mean Temperature 70 °F 72 °F  
Max Temperature 80 °F 82 °F 103 °F (1988)
Min Temperature 59 °F 63 °F 47 °F (1895)
Degree Days  
Heating Degree Days 0 0  
Month to date heating degree days 0  
Since 1 June heating degree days 49  
Since 1 July heating degree days 5  
Cooling Degree Days 4 8  
Month to date cooling degree days 8  
Year to date cooling degree days 482  
Since 1 June cooling degree days 426  
Growing Degree Days 20 (Base 50)    
Moisture  
Dew Point 60 °F    
Average Humidity 82    
Maximum Humidity 94    
Minimum Humidity 38    
Precipitation  
Precipitation 0.00 in 0.13 in 2.88 in (1897)
Month to date precipitation 0.13  
Year to date precipitation 21.64  
Sea Level Pressure  
Sea Level Pressure 29.96 in    
Wind  
Wind Speed 5 mph (West)    
Max Wind Speed 15 mph    
Max Gust Speed 21 mph    
Visibility 4 miles    
Events Fog    
T = Trace of Precipitation, MM = Missing Value Source: NWS Daily Summary

Daily Weather History Graph

Daily Weather History Graph

Search for Another Location

Airport or City:

Trip Planner

Search our weather history database for the weather conditions in past years. The results will help you decide how hot, cold, wet, or windy it might be!

Date:

Astronomy

Aug. 01, 2013 Rise Set
Actual Time 6:38 AM EDT 9:00 PM EDT
Civil Twilight 6:06 AM EDT 9:31 PM EDT
Nautical Twilight 5:28 AM EDT 10:09 PM EDT
Astronomical Twilight 4:45 AM EDT 10:52 PM EDT
Moon 2:13 AM EDT (8/1) 5:09 PM EDT (8/1)
Length of Visible Light 15h 24m
Length of Day
14h 22m
Waning Crescent, 23% of the Moon is Illuminated
Aug 1
Waning Crescent
Aug 6
New
Aug 14
First Quarter
Aug 20
Full
Aug 28
Last Quarter

Hourly Weather History & Observations

Time (EDT) Temp. Dew Point Humidity Pressure Visibility Wind Dir Wind Speed Gust Speed Precip Events Conditions
12:02 AM 62.6 °F 60.8 °F 94% 29.97 in 2.5 mi West 4.6 mph - N/A   Partly Cloudy
12:53 AM 63.0 °F 61.0 °F 93% 29.96 in 2.0 mi West 3.5 mph - N/A   Partly Cloudy
1:01 AM 62.6 °F 60.8 °F 94% 29.97 in 1.8 mi West 5.8 mph - N/A   Scattered Clouds
1:07 AM 64.4 °F 60.8 °F 88% 29.96 in 2.0 mi WSW 4.6 mph - N/A   Mostly Cloudy
1:27 AM 64.4 °F 62.6 °F 94% 29.97 in 1.8 mi West 4.6 mph - N/A   Overcast
1:37 AM 64.4 °F 62.6 °F 94% 29.97 in 2.0 mi WNW 6.9 mph - N/A   Overcast
1:53 AM 64.0 °F 61.0 °F 90% 29.95 in 2.0 mi West 3.5 mph - N/A   Mostly Cloudy
2:04 AM 62.6 °F 60.8 °F 94% 29.96 in 1.8 mi WNW 3.5 mph - N/A   Mostly Cloudy
2:14 AM 62.6 °F 60.8 °F 94% 29.95 in 1.5 mi Calm Calm - N/A   Scattered Clouds
2:35 AM 62.6 °F 60.8 °F 94% 29.95 in 1.0 mi NW 3.5 mph - N/A   Mist
2:41 AM 60.8 °F 59.0 °F 94% 29.95 in 0.5 mi Calm Calm - N/A Fog Fog
2:51 AM 62.6 °F 60.8 °F 94% 29.95 in 1.0 mi Calm Calm - N/A   Mostly Cloudy
2:53 AM 63.0 °F 61.0 °F 93% 29.94 in 1.0 mi Calm Calm - N/A   Overcast
3:08 AM 62.6 °F 60.8 °F 94% 29.95 in 0.8 mi West 4.6 mph - N/A   Overcast
3:21 AM 62.6 °F 60.8 °F 94% 29.95 in 1.2 mi West 4.6 mph - N/A   Overcast
3:53 AM 64.0 °F 62.1 °F 93% 29.94 in 2.0 mi WNW 8.1 mph - N/A   Overcast
4:35 AM 62.6 °F 60.8 °F 94% 29.95 in 1.2 mi WNW 3.5 mph - N/A   Overcast
4:53 AM 63.0 °F 61.0 °F 93% 29.94 in 1.5 mi WNW 3.5 mph - N/A   Overcast
5:40 AM 64.4 °F 62.6 °F 94% 29.96 in 2.0 mi WNW 4.6 mph - N/A   Overcast
5:48 AM 64.4 °F 62.6 °F 94% 29.96 in 2.5 mi WNW 5.8 mph - N/A   Overcast
5:53 AM 64.0 °F 62.1 °F 93% 29.95 in 2.5 mi NW 4.6 mph - N/A   Overcast
6:04 AM 64.4 °F 62.6 °F 94% 29.96 in 3.0 mi NW 4.6 mph - N/A   Overcast
6:31 AM 64.4 °F 62.6 °F 94% 29.96 in 2.5 mi Calm Calm - N/A   Overcast
6:44 AM 64.4 °F 60.8 °F 88% 29.96 in 2.0 mi Calm Calm - N/A   Mostly Cloudy
6:53 AM 64.0 °F 61.0 °F 90% 29.96 in 2.0 mi Calm Calm - N/A   Mostly Cloudy
7:00 AM 62.6 °F 60.8 °F 94% 29.97 in 1.2 mi SW 3.5 mph - N/A   Mostly Cloudy
7:09 AM 62.6 °F 59.0 °F 88% 29.97 in 0.8 mi SSW 3.5 mph - N/A   Mostly Cloudy
7:17 AM 62.6 °F 60.8 °F 94% 29.97 in 1.2 mi SSW 3.5 mph - N/A   Mostly Cloudy
7:45 AM 62.6 °F 60.8 °F 94% 29.98 in 1.0 mi SW 3.5 mph - N/A   Overcast
7:53 AM 63.0 °F 61.0 °F 93% 29.97 in 1.2 mi SW 3.5 mph - N/A   Mostly Cloudy
8:10 AM 64.4 °F 62.6 °F 94% 29.98 in 1.5 mi SW 4.6 mph - N/A   Partly Cloudy
8:28 AM 64.4 °F 62.6 °F 94% 29.99 in 2.5 mi WSW 5.8 mph - N/A   Mostly Cloudy
8:43 AM 66.2 °F 62.6 °F 88% 29.98 in 3.0 mi West 5.8 mph - N/A   Mostly Cloudy
8:53 AM 66.0 °F 62.1 °F 87% 29.98 in 3.0 mi West 8.1 mph - N/A   Mostly Cloudy
9:00 AM 66.2 °F 62.6 °F 88% 29.99 in 4.0 mi WSW 6.9 mph - N/A   Mostly Cloudy
9:53 AM 69.1 °F 63.0 °F 81% 29.98 in 5.0 mi WSW 6.9 mph - N/A   Haze
10:09 AM 69.8 °F 62.6 °F 78% 29.98 in 7.0 mi SW 5.8 mph - N/A   Scattered Clouds
10:53 AM 71.1 °F 64.0 °F 78% 29.97 in 10.0 mi West 6.9 mph - N/A   Mostly Cloudy
11:01 AM 71.6 °F 62.6 °F 73% 29.97 in 10.0 mi WNW 5.8 mph - N/A   Overcast
11:37 AM 73.4 °F 62.6 °F 69% 29.97 in 10.0 mi West 9.2 mph - N/A   Mostly Cloudy
11:53 AM 73.0 °F 63.0 °F 71% 29.96 in 10.0 mi West 6.9 mph - N/A   Mostly Cloudy
12:18 PM 75.2 °F 62.6 °F 65% 29.97 in 10.0 mi WNW 6.9 mph - N/A   Scattered Clouds
12:53 PM 75.9 °F 62.1 °F 62% 29.96 in 10.0 mi NW 9.2 mph - N/A   Scattered Clouds
1:53 PM 79.0 °F 57.9 °F 48% 29.95 in 10.0 mi NW 12.7 mph - N/A   Clear
2:53 PM 78.1 °F 52.0 °F 40% 29.95 in 10.0 mi NW 13.8 mph - N/A   Partly Cloudy
3:53 PM 79.0 °F 53.1 °F 40% 29.95 in 10.0 mi NW 12.7 mph 20.7 mph N/A   Partly Cloudy
4:53 PM 79.0 °F 51.1 °F 38% 29.95 in 10.0 mi WNW 15.0 mph - N/A   Clear
5:53 PM 77.0 °F 52.0 °F 42% 29.95 in 10.0 mi NNW 8.1 mph 17.3 mph N/A   Clear
6:53 PM 75.9 °F 52.0 °F 43% 29.94 in 10.0 mi North 9.2 mph - N/A   Clear
7:53 PM 73.9 °F 51.1 °F 45% 29.94 in 10.0 mi NNW 8.1 mph - N/A   Clear
8:53 PM 70.0 °F 52.0 °F 53% 29.95 in 10.0 mi NNW 4.6 mph - N/A   Clear
9:53 PM 63.0 °F 55.0 °F 75% 29.97 in 10.0 mi WNW 3.5 mph - N/A   Clear
10:53 PM 61.0 °F 54.0 °F 78% 29.96 in 10.0 mi Calm Calm - N/A   Clear
11:53 PM 59.0 °F 54.0 °F 83% 29.97 in 10.0 mi Calm Calm - N/A   Clear